Hourly Data Report for October 10, 2016

All times are specified in Local Standard Time (LST). Add 1 hour to adjust for Daylight Saving Time where and when it is observed.

GJOA HAVEN A
NUNAVUT

68°38'08.000" N
95°51'01.000" W
46.90 m
2302337
71597
YHK

Related Data

No related data is available for this station

Download Data

Hourly Data (October 2016)
Hourly Data Report for October 10, 2016
Temp Definition
°C
Dew Point Temp Definition
°C
Rel Hum Definition
%
Wind Dir Definition
10's deg

Wind Spd Definition
km/h
Visibility Definition
km
Stn Press Definition
kPa
Hmdx Definition


Wind Chill Definition


Weather Definition


TIME
00:00 Legend Double Dagger -6.5 -7.5 93 30 21 16.1 100.72   -14 Snow
01:00 Legend Double Dagger -7.0 -7.8 94 29 22 16.1 100.70   -14 Snow
02:00 Legend Double Dagger -8.6 -9.7 92 29 21 16.1 100.70   -16 LegendNANA
03:00 Legend Double Dagger -8.2 -9.6 90 30 21 16.1 100.70   -16 LegendNANA
04:00 Legend Double Dagger -6.4 -8.4 86 31 24 16.1 100.69   -14 LegendNANA
05:00 Legend Double Dagger -6.8 -8.6 87 30 18 16.1 100.69   -13 LegendNANA
06:00 Legend Double Dagger -6.7 -8.7 86 29 18 16.1 100.70   -13 LegendNANA
07:00 Legend Double Dagger -6.5 -8.6 85 30 21 16.1 100.68   -14 LegendNANA
08:00 Legend Double Dagger -6.5 -8.0 89 29 18 16.1 100.65   -13 LegendNANA
09:00 Legend Double Dagger -6.8 -8.3 89 29 21 16.1 100.64   -14 LegendNANA
10:00 Legend Double Dagger -6.5 -8.2 88 29 21 16.1 100.65   -14 LegendNANA
11:00 Legend Double Dagger -6.1 -7.8 88 28 18 16.1 100.62   -13 LegendNANA
12:00 Legend Double Dagger -5.5 -7.3 87 27 18 16.1 100.60   -12 LegendNANA
13:00 Legend Double Dagger -5.3 -6.4 92 28 21 16.1 100.56   -12 LegendNANA
14:00 Legend Double Dagger -4.6 -5.7 92 25 18 16.1 100.51   -11 Snow
15:00 Legend Double Dagger -4.3 -5.0 95 25 17 4.8 100.45   -10 Snow
16:00 Legend Double Dagger -3.9 -4.3 97 27 21 1.6 100.43   -10 Snow
17:00 Legend Double Dagger -3.7 -4.1 97 27 21 2.4 100.38   -10 Snow
18:00 Legend Double Dagger -4.1 -4.5 97 29 24 4.0 100.33   -11 Snow
19:00 Legend Double Dagger -5.8 -6.2 97 29 17 16.1 100.31   -12 Snow
20:00 Legend Double Dagger -6.8 -7.5 95 30 17 16.1 100.29   -13 LegendNANA
21:00 Legend Double Dagger -5.8 -6.5 95 30 13 16.1 100.28   -11 LegendNANA
22:00 Legend Double Dagger -5.6 -5.7 99 28 9 16.1 100.26   -10 LegendNANA
23:00 Legend Double Dagger -5.4 -5.5 99 25 5 16.1 100.25   -8 Snow

Notes on Data Quality.

Legend

  • E = Estimated
  • M = Missing
  • NA = Not Available
  • ‡ = Partner data that is not subject to review by the National Climate Archives
Date modified: